Location: Brunsbüttel
(52.3892°N, 10.6138°E)
Time: 11:27:14
(UTC+00:00)

Cosmos 1356 Rocket - Pass Details

Date: 19 May 2025
Orbit: 517 x 565 km, 81.2° (Epoch: 23 June)

Event Time Altitude Azimuth Distance (km) Brightness Sun altitude
Exits shadow 20:28:26 10° 165° (SSE) 1,866 5.5 -9.2°
Reaches altitude 10° 20:28:26 10° 165° (SSE) 1,860 5.4 -9.2°
Maximum altitude 20:32:18 41° 95° (E) 832 3.9 -9.6°
Drops below altitude 10° 20:36:10 10° 26° (NNE) 1,860 6.4 -9.9°
Sets 20:38:25 0° 19° (NNE) 2,754 7.4 -10.1°
